TimeEDT,TemperatureF,Dew PointF,Humidity,Sea Level PressureIn,VisibilityMPH,Wind Direction,Wind SpeedMPH,Gust SpeedMPH,PrecipitationIn,Events,Conditions,WindDirDegrees,DateUTC
12:15 AM,71.1,61.7,72,30.24,10.0,SSW,6.9,-,N/A,,Clear,200,2013-05-30 04:15:00
12:35 AM,70.5,61.7,74,30.23,10.0,South,5.8,-,N/A,,Clear,190,2013-05-30 04:35:00
12:55 AM,70.0,61.7,75,30.23,10.0,South,6.9,-,N/A,,Clear,180,2013-05-30 04:55:00
1:15 AM,69.3,61.9,77,30.22,10.0,South,5.8,-,N/A,,Clear,190,2013-05-30 05:15:00
1:35 AM,69.1,62.1,78,30.22,10.0,South,5.8,-,N/A,,Clear,190,2013-05-30 05:35:00
1:55 AM,68.7,62.2,80,30.23,10.0,SSW,4.6,-,N/A,,Clear,210,2013-05-30 05:55:00
2:15 AM,68.2,62.6,82,30.23,10.0,SSW,4.6,-,N/A,,Clear,200,2013-05-30 06:15:00
2:35 AM,67.8,62.6,83,30.23,10.0,SSW,3.5,-,N/A,,Clear,210,2013-05-30 06:35:00
2:55 AM,67.3,62.6,85,30.23,10.0,Calm,Calm,-,N/A,,Clear,0,2013-05-30 06:55:00
3:15 AM,66.9,62.4,85,30.23,10.0,South,3.5,-,N/A,,Clear,180,2013-05-30 07:15:00
3:35 AM,66.4,62.6,88,30.23,10.0,Calm,Calm,-,N/A,,Clear,0,2013-05-30 07:35:00
3:55 AM,66.0,62.4,88,30.23,10.0,South,3.5,-,N/A,,Clear,190,2013-05-30 07:55:00
4:15 AM,65.5,62.1,89,30.23,10.0,South,3.5,-,N/A,,Clear,190,2013-05-30 08:15:00
4:35 AM,65.5,62.1,89,30.23,10.0,Calm,Calm,-,N/A,,Clear,0,2013-05-30 08:35:00
4:55 AM,64.4,61.3,90,30.24,7.0,Calm,Calm,-,N/A,,Clear,0,2013-05-30 08:55:00
5:15 AM,62.6,60.6,93,30.24,7.0,Calm,Calm,-,N/A,,Clear,0,2013-05-30 09:15:00
5:35 AM,61.7,59.7,93,30.25,4.0,Calm,Calm,-,N/A,,Clear,0,2013-05-30 09:35:00
5:55 AM,61.5,59.7,94,30.26,2.0,Calm,Calm,-,N/A,,Clear,0,2013-05-30 09:55:00
6:15 AM,60.8,59.0,94,30.27,0.2,Calm,Calm,-,N/A,Fog,Fog,0,2013-05-30 10:15:00
6:35 AM,60.4,58.8,94,30.27,0.2,Calm,Calm,-,N/A,Fog,Fog,0,2013-05-30 10:35:00
6:55 AM,61.3,59.7,94,30.27,7.0,Calm,Calm,-,N/A,,Scattered Clouds,0,2013-05-30 10:55:00
7:15 AM,63.5,61.9,94,30.27,7.0,Calm,Calm,-,N/A,,Clear,0,2013-05-30 11:15:00
7:35 AM,66.6,63.3,89,30.27,10.0,SSW,3.5,-,N/A,,Clear,210,2013-05-30 11:35:00
7:55 AM,69.1,64.2,84,30.28,10.0,SW,5.8,-,N/A,,Clear,220,2013-05-30 11:55:00
8:15 AM,70.9,64.8,81,30.28,10.0,SSW,6.9,-,N/A,,Clear,210,2013-05-30 12:15:00
8:35 AM,72.7,65.5,78,30.28,10.0,SW,4.6,-,N/A,,Clear,230,2013-05-30 12:35:00
8:55 AM,74.7,65.7,73,30.28,10.0,SSW,5.8,-,N/A,,Clear,210,2013-05-30 12:55:00
9:15 AM,75.9,65.3,70,30.28,10.0,SSW,6.9,-,N/A,,Clear,200,2013-05-30 13:15:00
9:35 AM,77.4,64.8,65,30.28,10.0,SW,6.9,-,N/A,,Clear,220,2013-05-30 13:35:00
9:55 AM,78.4,64.2,62,30.27,10.0,SSW,5.8,-,N/A,,Clear,200,2013-05-30 13:55:00
10:15 AM,79.3,63.7,59,30.27,10.0,SW,4.6,-,N/A,,Clear,230,2013-05-30 14:15:00
10:35 AM,80.2,64.2,58,30.27,10.0,SW,8.1,-,N/A,,Clear,230,2013-05-30 14:35:00
10:55 AM,80.8,63.3,55,30.26,10.0,WSW,6.9,-,N/A,,Clear,240,2013-05-30 14:55:00
11:15 AM,81.5,62.6,53,30.26,10.0,SSW,5.8,-,N/A,,Clear,210,2013-05-30 15:15:00
11:35 AM,82.4,62.6,51,30.26,10.0,SW,5.8,-,N/A,,Clear,230,2013-05-30 15:35:00
11:55 AM,83.1,62.4,49,30.26,10.0,South,8.1,-,N/A,,Clear,190,2013-05-30 15:55:00
12:15 PM,84.0,61.3,46,30.26,10.0,West,10.4,-,N/A,,Clear,260,2013-05-30 16:15:00
12:35 PM,84.6,60.3,44,30.26,10.0,SW,8.1,-,N/A,,Clear,230,2013-05-30 16:35:00
12:55 PM,85.1,59.4,42,30.25,10.0,WSW,9.2,17.3,N/A,,Clear,240,2013-05-30 16:55:00
1:15 PM,85.6,59.0,40,30.24,10.0,West,8.1,-,N/A,,Clear,260,2013-05-30 17:15:00
1:35 PM,86.5,57.7,37,30.23,10.0,SSW,8.1,-,N/A,,Clear,210,2013-05-30 17:35:00
1:55 PM,87.1,57.9,37,30.23,10.0,SSW,6.9,-,N/A,,Clear,200,2013-05-30 17:55:00
2:15 PM,87.3,57.2,36,30.22,10.0,SW,6.9,-,N/A,,Clear,220,2013-05-30 18:15:00
2:35 PM,87.4,57.0,35,30.21,10.0,SSW,3.5,16.1,N/A,,Clear,200,2013-05-30 18:35:00
2:55 PM,88.0,57.2,35,30.21,10.0,SW,6.9,17.3,N/A,,Clear,220,2013-05-30 18:55:00
3:15 PM,88.2,58.6,37,30.21,10.0,SSW,9.2,-,N/A,,Clear,200,2013-05-30 19:15:00
3:35 PM,88.5,58.8,37,30.20,10.0,WSW,3.5,-,N/A,,Clear,240,2013-05-30 19:35:00
3:55 PM,88.3,59.5,38,30.20,10.0,SW,6.9,-,N/A,,Scattered Clouds,230,2013-05-30 19:55:00
4:15 PM,88.2,60.6,39,30.19,10.0,SW,6.9,-,N/A,,Scattered Clouds,230,2013-05-30 20:15:00
4:35 PM,88.0,60.8,40,30.19,10.0,WSW,6.9,-,N/A,,Scattered Clouds,240,2013-05-30 20:35:00
4:55 PM,88.7,60.4,39,30.19,10.0,SW,8.1,-,N/A,,Scattered Clouds,230,2013-05-30 20:55:00
5:15 PM,88.5,60.4,39,30.19,10.0,WSW,4.6,-,N/A,,Scattered Clouds,240,2013-05-30 21:15:00
5:35 PM,88.7,61.0,39,30.19,10.0,SW,6.9,-,N/A,,Scattered Clouds,220,2013-05-30 21:35:00
5:55 PM,88.0,60.3,39,30.18,10.0,SSW,6.9,-,N/A,,Clear,200,2013-05-30 21:55:00
6:15 PM,87.4,60.1,40,30.18,10.0,SW,4.6,-,N/A,,Clear,230,2013-05-30 22:15:00
6:35 PM,87.3,59.5,39,30.18,10.0,SSW,6.9,-,N/A,,Clear,200,2013-05-30 22:35:00
6:55 PM,86.5,59.7,40,30.18,10.0,SSW,4.6,-,N/A,,Clear,210,2013-05-30 22:55:00
7:15 PM,85.8,60.4,42,30.19,10.0,Calm,Calm,-,N/A,,Clear,0,2013-05-30 23:15:00
7:35 PM,84.6,62.1,47,30.18,10.0,South,3.5,-,N/A,,Clear,170,2013-05-30 23:35:00
7:55 PM,83.1,63.0,50,30.19,10.0,Calm,Calm,-,N/A,,Clear,0,2013-05-30 23:55:00
8:15 PM,79.0,68.4,70,30.19,10.0,Calm,Calm,-,N/A,,Clear,0,2013-05-31 00:15:00
8:35 PM,75.4,69.4,82,30.18,10.0,Calm,Calm,-,N/A,,Clear,0,2013-05-31 00:35:00
8:55 PM,73.2,68.5,85,30.18,10.0,Calm,Calm,-,N/A,,Clear,0,2013-05-31 00:55:00
9:15 PM,72.0,68.0,87,30.18,10.0,Calm,Calm,-,N/A,,Clear,0,2013-05-31 01:15:00
9:35 PM,72.5,66.9,83,30.20,10.0,South,5.8,-,N/A,,Scattered Clouds,170,2013-05-31 01:35:00
9:55 PM,76.5,66.2,70,30.20,10.0,South,6.9,-,N/A,,Clear,170,2013-05-31 01:55:00
10:15 PM,77.0,66.9,71,30.21,10.0,South,8.1,-,N/A,,Clear,180,2013-05-31 02:15:00
10:35 PM,76.6,67.5,73,30.21,10.0,South,4.6,-,N/A,,Clear,190,2013-05-31 02:35:00
10:55 PM,75.9,67.5,75,30.21,10.0,South,6.9,-,N/A,,Clear,190,2013-05-31 02:55:00
11:15 PM,75.4,67.5,76,30.21,10.0,South,6.9,-,N/A,,Clear,190,2013-05-31 03:15:00
11:35 PM,74.7,67.3,78,30.21,10.0,South,8.1,-,N/A,,Clear,190,2013-05-31 03:35:00
11:55 PM,74.1,67.3,79,30.21,10.0,South,8.1,-,N/A,,Clear,180,2013-05-31 03:55:00